QPF
0.00 0.00 0.00 0.00 0.00 0.00 0.00 0.00 0.00 0.00 0.00 0.00 0.00 0.00 0.00 0.00 0.00 0.00 0.00 0.00 0.00 0.00 0.00 0.00 0.00 0.00 0.00 0.00 0.00 0.00 0.00 0.00 0.00 0.00 0.00 0.00 0.00 0.00 0.00 0.01 0.02 0.00 0.00
0.00 0.00 0.00 0.00 0.00 0.00 0.00 0.00 0.00 0.00 0.00 0.00 0.00 0.00 0.00 0.00 0.00 0.00 0.00 0.00 0.00 0.00 0.00 0.00 0.00 0.00 0.00 0.00 0.00 0.00 0.00 0.00 0.00 0.00 0.00 0.00 0.00 0.00 0.01 0.02 0.03 0.01 0.00
0.00 0.00 0.00 0.00 0.00 0.00 0.01 0.01 0.00 0.00 0.00 0.00 0.01 0.00 0.00 0.00 0.00 0.00 0.00 0.00 0.00 0.00 0.00 0.00 0.00 0.00 0.00 0.00 0.00 0.00 0.00 0.01 0.01 0.03 0.08 0.05 0.00 0.00 0.00 0.02 0.02 0.00 0.00
0.00 0.00 0.00 0.00 0.00 0.00 0.00 0.01 0.01 0.01 0.00 0.01 0.01 0.00 0.01 0.00 0.00 0.00 0.00 0.00 0.00 0.00 0.00 0.00 0.00 0.00 0.00 0.00 0.00 0.01 0.01 0.01 0.02 0.08 0.19 0.07 0.01 0.00 0.00 0.01 0.01 0.01 0.01
0.00 0.00 0.00 0.00 0.00 0.00 0.01 0.01 0.01 0.02 0.01 0.01 0.01 0.01 0.01 0.00 0.00 0.00 0.00 0.00 0.00 0.00 0.00 0.00 0.00 0.00 0.00 0.00 0.00 0.00 0.01 0.01 0.04 0.09 0.09 0.05 0.04 0.01 0.01 0.01 0.02 0.02 0.03
0.00 0.00 0.00 0.00 0.00 0.00 0.01 0.01 0.02 0.02 0.02 0.02 0.01 0.01 0.01 0.01 0.01 0.00 0.00 0.00 0.00 0.00 0.00 0.00 0.00 0.00 0.00 0.00 0.00 0.00 0.00 0.01 0.04 0.07 0.05 0.02 0.02 0.01 0.01 0.01 0.01 0.02 0.02
0.00 0.00 0.00 0.00 0.00 0.00 0.01 0.01 0.02 0.02 0.03 0.02 0.02 0.01 0.01 0.01 0.01 0.00 0.00 0.00 0.00 0.00 0.00 0.00 0.00 0.00 0.00 0.00 0.00 0.00 0.00 0.01 0.03 0.07 0.05 0.02 0.02 0.00 0.00 0.01 0.02 0.02 0.02
0.00 0.00 0.00 0.00 0.00 0.00 0.01 0.02 0.02 0.02 0.03 0.03 0.03 0.02 0.01 0.01 0.01 0.00 0.00 0.00 0.00 0.00 0.00 0.00 0.00 0.00 0.00 0.00 0.00 0.00 0.00 0.00 0.01 0.04 0.03 0.02 0.01 0.00 0.00 0.00 0.01 0.01 0.01
0.00 0.00 0.00 0.00 0.00 0.00 0.02 0.03 0.03 0.03 0.03 0.04 0.03 0.02 0.01 0.01 0.00 0.00 0.00 0.00 0.00 0.00 0.00 0.00 0.00 0.00 0.00 0.00 0.00 0.00 0.00 0.00 0.01 0.01 0.04 0.05 0.03 0.00 0.00 0.00 0.00 0.00 0.01
0.00 0.00 0.00 0.00 0.00 0.00 0.00 0.02 0.02 0.04 0.04 0.04 0.03 0.02 0.01 0.00 0.00 0.00 0.00 0.00 0.00 0.00 0.00 0.00 0.00 0.00 0.00 0.00 0.00 0.00 0.00 0.00 0.01 0.02 0.05 0.05 0.02 0.01 0.00 0.00 0.00 0.00 0.00
0.00 0.00 0.00 0.00 0.00 0.01 0.01 0.01 0.01 0.02 0.02 0.02 0.01 0.01 0.01 0.00 0.00 0.01 0.00 0.00 0.00 0.00 0.00 0.00 0.00 0.00 0.00 0.00 0.00 0.00 0.00 0.00 0.01 0.03 0.05 0.03 0.02 0.01 0.01 0.01 0.01 0.01 0.00
0.00 0.00 0.00 0.00 0.00 0.01 0.01 0.01 0.01 0.01 0.01 0.00 0.01 0.00 0.01 0.02 0.03 0.02 0.02 0.01 0.00 0.00 0.00 0.00 0.00 0.00 0.00 0.00 0.00 0.00 0.00 0.00 0.01 0.04 0.08 0.04 0.02 0.01 0.01 0.01 0.01 0.01 0.01
0.00 0.00 0.00 0.00 0.01 0.01 0.02 0.02 0.03 0.04 0.03 0.02 0.04 0.02 0.02 0.03 0.02 0.01 0.02 0.01 0.01 0.00 0.01 0.02 0.01 0.00 0.00 0.00 0.00 0.00 0.00 0.00 0.00 0.01 0.02 0.02 0.02 0.01 0.02 0.02 0.01 0.01 0.01
0.00 0.00 0.00 0.00 0.01 0.01 0.02 0.03 0.04 0.03 0.04 0.03 0.03 0.02 0.03 0.03 0.02 0.02 0.03 0.02 0.02 0.02 0.03 0.03 0.03 0.02 0.01 0.00 0.00 0.00 0.00 0.00 0.00 0.01 0.02 0.02 0.02 0.02 0.02 0.02 0.02 0.02 0.02
0.01 0.00 0.02 0.01 0.01 0.02 0.04 0.05 0.04 0.04 0.04 0.04 0.05 0.02 0.05 0.03 0.02 0.02 0.02 0.02 0.03 0.03 0.03 0.03 0.02 0.02 0.01 0.01 0.00 0.01 0.00 0.00 0.00 0.01 0.02 0.02 0.01 0.03 0.04 0.05 0.04 0.02 0.02
0.01 0.00 0.01 0.01 0.02 0.02 0.04 0.04 0.05 0.04 0.05 0.07 0.05 0.04 0.04 0.04 0.04 0.04 0.04 0.05 0.04 0.03 0.04 0.04 0.02 0.02 0.02 0.01 0.01 0.01 0.01 0.01 0.01 0.01 0.04 0.03 0.03 0.03 0.04 0.05 0.05 0.04 0.03
0.01 0.00 0.00 0.01 0.02 0.03 0.03 0.04 0.04 0.03 0.04 0.04 0.05 0.05 0.04 0.04 0.07 0.06 0.06 0.07 0.06 0.05 0.06 0.04 0.04 0.04 0.04 0.05 0.03 0.02 0.02 0.02 0.02 0.03 0.06 0.06 0.05 0.04 0.03 0.04 0.04 0.04 0.04
0.02 0.02 0.01 0.01 0.02 0.02 0.04 0.05 0.04 0.04 0.06 0.05 0.06 0.07 0.06 0.05 0.06 0.07 0.08 0.07 0.06 0.07 0.07 0.08 0.08 0.07 0.08 0.09 0.08 0.06 0.04 0.05 0.06 0.06 0.07 0.07 0.09 0.08 0.05 0.03 0.03 0.04 0.04
0.05 0.03 0.02 0.02 0.02 0.03 0.04 0.04 0.04 0.06 0.09 0.10 0.09 0.08 0.08 0.06 0.05 0.08 0.09 0.09 0.08 0.07 0.08 0.07 0.09 0.10 0.12 0.13 0.11 0.10 0.07 0.09 0.13 0.12 0.09 0.09 0.11 0.12 0.11 0.07 0.05 0.05 0.04
0.07 0.06 0.04 0.04 0.05 0.06 0.06 0.06 0.08 0.10 0.11 0.11 0.11 0.10 0.10 0.10 0.10 0.10 0.08 0.08 0.08 0.09 0.10 0.11 0.13 0.13 0.14 0.15 0.12 0.12 0.11 0.11 0.13 0.17 0.16 0.13 0.14 0.15 0.16 0.14 0.12 0.07 0.05
0.09 0.10 0.08 0.08 0.10 0.11 0.09 0.09 0.10 0.13 0.15 0.16 0.17 0.17 0.16 0.13 0.12 0.11 0.10 0.09 0.08 0.09 0.11 0.12 0.14 0.15 0.17 0.18 0.17 0.16 0.14 0.12 0.13 0.16 0.15 0.15 0.13 0.12 0.13 0.14 0.18 0.16 0.10
0.09 0.11 0.12 0.14 0.15 0.15 0.15 0.14 0.15 0.18 0.21 0.20 0.17 0.16 0.17 0.16 0.16 0.16 0.15 0.13 0.12 0.11 0.11 0.13 0.16 0.16 0.17 0.18 0.18 0.21 0.20 0.16 0.14 0.12 0.12 0.12 0.11 0.09 0.08 0.07 0.06 0.07 0.06
0.12 0.12 0.12 0.15 0.18 0.20 0.21 0.21 0.21 0.21 0.22 0.25 0.27 0.25 0.22 0.21 0.21 0.20 0.17 0.15 0.14 0.12 0.12 0.11 0.13 0.14 0.14 0.15 0.17 0.19 0.20 0.20 0.17 0.12 0.10 0.07 0.07 0.07 0.05 0.04 0.03 0.03 0.03
0.14 0.11 0.11 0.13 0.16 0.19 0.22 0.22 0.22 0.24 0.27 0.30 0.34 0.32 0.31 0.27 0.23 0.19 0.16 0.13 0.12 0.11 0.11 0.10 0.09 0.10 0.11 0.10 0.09 0.10 0.11 0.12 0.13 0.10 0.06 0.06 0.06 0.05 0.04 0.04 0.04 0.04 0.05
0.14 0.13 0.13 0.14 0.15 0.16 0.17 0.21 0.25 0.30 0.35 0.37 0.36 0.34 0.34 0.29 0.20 0.16 0.14 0.11 0.09 0.07 0.07 0.07 0.07 0.08 0.09 0.09 0.09 0.08 0.08 0.08 0.09 0.08 0.07 0.06 0.05 0.04 0.04 0.04 0.04 0.04 0.04
0.09 0.09 0.10 0.09 0.09 0.10 0.11 0.14 0.20 0.27 0.29 0.29 0.29 0.28 0.26 0.22 0.18 0.16 0.13 0.11 0.09 0.08 0.09 0.08 0.07 0.07 0.08 0.09 0.09 0.08 0.07 0.07 0.08 0.08 0.08 0.06 0.05 0.04 0.03 0.03 0.03 0.03 0.03
MSLP
1008.94 1009.16 1009.55 1010.09 1010.72 1011.39 1012.02 1012.57 1012.99 1013.31 1013.55 1013.76 1013.99 1014.26 1014.58 1014.94 1015.31 1015.64 1015.90 1016.09 1016.21 1016.29 1016.35 1016.43 1016.54 1016.67 1016.81 1016.94 1017.01 1017.04 1017.02 1016.98 1016.95 1016.96 1017.04 1017.19 1017.39 1017.63 1017.87 1018.08 1018.24 1018.36 1018.45
1009.08 1009.43 1009.91 1010.49 1011.12 1011.74 1012.29 1012.75 1013.10 1013.37 1013.60 1013.83 1014.12 1014.48 1014.89 1015.33 1015.75 1016.10 1016.36 1016.51 1016.57 1016.59 1016.60 1016.65 1016.73 1016.85 1016.99 1017.12 1017.20 1017.23 1017.21 1017.17 1017.15 1017.17 1017.27 1017.44 1017.67 1017.93 1018.19 1018.42 1018.60 1018.72 1018.80
1008.98 1009.47 1010.05 1010.70 1011.36 1011.97 1012.50 1012.91 1013.22 1013.47 1013.69 1013.95 1014.28 1014.69 1015.15 1015.63 1016.06 1016.41 1016.64 1016.76 1016.79 1016.77 1016.76 1016.79 1016.87 1016.99 1017.13 1017.26 1017.34 1017.36 1017.34 1017.30 1017.28 1017.31 1017.42 1017.61 1017.86 1018.15 1018.43 1018.68 1018.88 1019.02 1019.12
1008.67 1009.29 1010.00 1010.74 1011.46 1012.11 1012.65 1013.08 1013.39 1013.64 1013.87 1014.15 1014.50 1014.92 1015.39 1015.86 1016.28 1016.61 1016.81 1016.90 1016.92 1016.90 1016.89 1016.93 1017.03 1017.16 1017.31 1017.43 1017.50 1017.51 1017.47 1017.42 1017.39 1017.42 1017.54 1017.74 1018.00 1018.31 1018.60 1018.87 1019.09 1019.26 1019.39
1008.26 1009.00 1009.82 1010.66 1011.48 1012.20 1012.80 1013.26 1013.61 1013.89 1014.15 1014.44 1014.79 1015.20 1015.64 1016.08 1016.46 1016.75 1016.93 1017.02 1017.04 1017.05 1017.08 1017.15 1017.27 1017.42 1017.57 1017.68 1017.72 1017.71 1017.65 1017.57 1017.53 1017.55 1017.66 1017.86 1018.13 1018.44 1018.75 1019.03 1019.26 1019.46 1019.62
1007.91 1008.73 1009.63 1010.57 1011.47 1012.27 1012.95 1013.48 1013.88 1014.20 1014.49 1014.79 1015.13 1015.51 1015.91 1016.30 1016.63 1016.89 1017.05 1017.15 1017.21 1017.26 1017.34 1017.46 1017.61 1017.78 1017.92 1018.00 1018.01 1017.96 1017.86 1017.75 1017.69 1017.70 1017.81 1018.01 1018.27 1018.57 1018.88 1019.16 1019.40 1019.61 1019.79
1007.72 1008.58 1009.54 1010.54 1011.50 1012.36 1013.10 1013.70 1014.16 1014.53 1014.85 1015.16 1015.49 1015.84 1016.19 1016.53 1016.81 1017.04 1017.20 1017.32 1017.42 1017.53 1017.67 1017.84 1018.02 1018.19 1018.31 1018.35 1018.32 1018.21 1018.07 1017.93 1017.85 1017.85 1017.96 1018.15 1018.41 1018.71 1019.01 1019.28 1019.52 1019.73 1019.92
1007.77 1008.63 1009.60 1010.60 1011.58 1012.47 1013.24 1013.88 1014.38 1014.80 1015.15 1015.47 1015.80 1016.12 1016.44 1016.73 1016.98 1017.18 1017.35 1017.49 1017.64 1017.80 1017.99 1018.20 1018.40 1018.56 1018.64 1018.63 1018.54 1018.38 1018.20 1018.03 1017.94 1017.95 1018.07 1018.27 1018.54 1018.84 1019.13 1019.39 1019.63 1019.83 1020.02
1008.02 1008.86 1009.78 1010.74 1011.68 1012.55 1013.31 1013.95 1014.48 1014.92 1015.30 1015.64 1015.97 1016.28 1016.58 1016.84 1017.08 1017.27 1017.45 1017.61 1017.79 1018.00 1018.22 1018.45 1018.64 1018.77 1018.81 1018.75 1018.60 1018.39 1018.17 1017.99 1017.91 1017.94 1018.08 1018.32 1018.61 1018.93 1019.23 1019.49 1019.72 1019.91 1020.10
1008.38 1009.16 1010.01 1010.89 1011.75 1012.55 1013.26 1013.88 1014.40 1014.85 1015.25 1015.61 1015.96 1016.28 1016.57 1016.83 1017.06 1017.25 1017.43 1017.62 1017.82 1018.05 1018.28 1018.51 1018.68 1018.78 1018.77 1018.65 1018.44 1018.19 1017.96 1017.78 1017.72 1017.79 1017.98 1018.27 1018.61 1018.96 1019.28 1019.56 1019.79 1019.98 1020.15
1008.69 1009.41 1010.18 1010.96 1011.72 1012.43 1013.07 1013.63 1014.13 1014.57 1014.99 1015.38 1015.75 1016.09 1016.40 1016.67 1016.90 1017.10 1017.28 1017.48 1017.68 1017.91 1018.15 1018.35 1018.50 1018.56 1018.50 1018.34 1018.10 1017.83 1017.59 1017.43 1017.40 1017.52 1017.77 1018.11 1018.51 1018.91 1019.27 1019.58 1019.82 1020.02 1020.19
1008.82 1009.50 1010.20 1010.89 1011.56 1012.17 1012.72 1013.23 1013.69 1014.13 1014.56 1014.97 1015.37 1015.74 1016.08 1016.36 1016.60 1016.81 1017.00 1017.19 1017.39 1017.61 1017.83 1018.02 1018.15 1018.17 1018.09 1017.90 1017.65 1017.37 1017.14 1017.01 1017.01 1017.18 1017.48 1017.89 1018.34 1018.79 1019.20 1019.54 1019.81 1020.02 1020.20
1008.68 1009.34 1010.01 1010.65 1011.25 1011.79 1012.29 1012.74 1013.17 1013.60 1014.03 1014.47 1014.89 1015.29 1015.65 1015.96 1016.21 1016.43 1016.62 1016.80 1017.00 1017.21 1017.42 1017.59 1017.70 1017.72 1017.63 1017.45 1017.20 1016.94 1016.72 1016.62 1016.65 1016.85 1017.19 1017.64 1018.14 1018.63 1019.08 1019.45 1019.75 1019.97 1020.16
1008.26 1008.96 1009.64 1010.27 1010.85 1011.36 1011.82 1012.25 1012.66 1013.07 1013.50 1013.95 1014.39 1014.81 1015.19 1015.51 1015.78 1016.01 1016.20 1016.39 1016.58 1016.79 1016.99 1017.16 1017.28 1017.31 1017.24 1017.08 1016.86 1016.62 1016.44 1016.35 1016.40 1016.61 1016.97 1017.42 1017.93 1018.45 1018.91 1019.31 1019.63 1019.87 1020.07
1007.65 1008.41 1009.15 1009.82 1010.42 1010.95 1011.41 1011.83 1012.23 1012.64 1013.06 1013.50 1013.94 1014.36 1014.75 1015.09 1015.37 1015.61 1015.81 1016.01 1016.21 1016.42 1016.62 1016.81 1016.95 1017.01 1016.98 1016.87 1016.69 1016.50 1016.34 1016.26 1016.32 1016.51 1016.85 1017.28 1017.77 1018.28 1018.74 1019.14 1019.46 1019.71 1019.91
1007.00 1007.84 1008.65 1009.40 1010.06 1010.63 1011.11 1011.54 1011.94 1012.34 1012.74 1013.16 1013.59 1014.01 1014.40 1014.75 1015.04 1015.30 1015.52 1015.73 1015.94 1016.16 1016.39 1016.60 1016.77 1016.87 1016.89 1016.83 1016.71 1016.57 1016.44 1016.37 1016.41 1016.57 1016.86 1017.24 1017.69 1018.15 1018.58 1018.96 1019.27 1019.51 1019.70
1006.47 1007.37 1008.26 1009.08 1009.81 1010.43 1010.95 1011.40 1011.80 1012.17 1012.55 1012.95 1013.35 1013.76 1014.15 1014.50 1014.82 1015.10 1015.35 1015.58 1015.81 1016.05 1016.30 1016.53 1016.73 1016.87 1016.95 1016.95 1016.88 1016.78 1016.68 1016.63 1016.65 1016.77 1017.00 1017.31 1017.68 1018.08 1018.46 1018.80 1019.08 1019.31 1019.48
1006.21 1007.15 1008.08 1008.94 1009.71 1010.36 1010.91 1011.37 1011.76 1012.12 1012.47 1012.84 1013.22 1013.61 1014.00 1014.38 1014.73 1015.04 1015.33 1015.59 1015.85 1016.10 1016.35 1016.59 1016.81 1016.98 1017.10 1017.14 1017.13 1017.08 1017.02 1016.97 1016.98 1017.06 1017.23 1017.47 1017.76 1018.08 1018.40 1018.69 1018.94 1019.13 1019.29
1006.32 1007.23 1008.14 1008.99 1009.75 1010.41 1010.95 1011.40 1011.78 1012.12 1012.45 1012.80 1013.17 1013.57 1013.98 1014.40 1014.79 1015.15 1015.48 1015.78 1016.05 1016.31 1016.55 1016.78 1016.99 1017.17 1017.30 1017.39 1017.42 1017.41 1017.39 1017.36 1017.36 1017.42 1017.53 1017.70 1017.92 1018.17 1018.42 1018.66 1018.87 1019.03 1019.16
1006.83 1007.64 1008.45 1009.23 1009.92 1010.53 1011.04 1011.46 1011.82 1012.15 1012.48 1012.83 1013.22 1013.65 1014.11 1014.58 1015.03 1015.46 1015.83 1016.16 1016.45 1016.69 1016.90 1017.10 1017.28 1017.43 1017.56 1017.66 1017.72 1017.76 1017.77 1017.77 1017.78 1017.82 1017.89 1018.01 1018.16 1018.34 1018.52 1018.71 1018.88 1019.02 1019.13
1007.70 1008.35 1009.00 1009.62 1010.20 1010.72 1011.16 1011.55 1011.90 1012.23 1012.58 1012.96 1013.40 1013.89 1014.42 1014.96 1015.49 1015.98 1016.41 1016.76 1017.04 1017.25 1017.42 1017.56 1017.67 1017.78 1017.89 1017.98 1018.06 1018.13 1018.18 1018.21 1018.24 1018.27 1018.32 1018.38 1018.47 1018.58 1018.70 1018.83 1018.96 1019.08 1019.19
1008.85 1009.28 1009.73 1010.16 1010.59 1010.99 1011.36 1011.71 1012.05 1012.41 1012.80 1013.25 1013.76 1014.33 1014.95 1015.58 1016.19 1016.74 1017.20 1017.56 1017.82 1017.99 1018.10 1018.16 1018.21 1018.26 1018.32 1018.40 1018.48 1018.57 1018.65 1018.71 1018.75 1018.78 1018.80 1018.82 1018.84 1018.88 1018.94 1019.01 1019.10 1019.20 1019.29
1010.16 1010.38 1010.61 1010.85 1011.12 1011.40 1011.69 1012.01 1012.36 1012.76 1013.22 1013.75 1014.36 1015.02 1015.73 1016.44 1017.11 1017.70 1018.19 1018.54 1018.77 1018.89 1018.92 1018.91 1018.88 1018.86 1018.88 1018.93 1019.01 1019.11 1019.21 1019.29 1019.34 1019.35 1019.34 1019.30 1019.25 1019.21 1019.19 1019.20 1019.24 1019.30 1019.40
1011.55 1011.58 1011.62 1011.69 1011.82 1012.00 1012.24 1012.55 1012.92 1013.38 1013.91 1014.52 1015.21 1015.96 1016.73 1017.49 1018.20 1018.81 1019.29 1019.62 1019.81 1019.87 1019.83 1019.74 1019.65 1019.57 1019.55 1019.57 1019.65 1019.75 1019.85 1019.94 1019.98 1019.96 1019.90 1019.80 1019.67 1019.54 1019.43 1019.36 1019.33 1019.36 1019.44
1012.92 1012.83 1012.74 1012.70 1012.73 1012.85 1013.06 1013.37 1013.77 1014.28 1014.87 1015.55 1016.30 1017.09 1017.90 1018.67 1019.37 1019.96 1020.40 1020.68 1020.81 1020.81 1020.72 1020.58 1020.43 1020.32 1020.27 1020.28 1020.34 1020.44 1020.54 1020.61 1020.62 1020.57 1020.44 1020.26 1020.04 1019.82 1019.61 1019.45 1019.35 1019.33 1019.38
1014.22 1014.09 1013.96 1013.87 1013.86 1013.95 1014.15 1014.47 1014.90 1015.44 1016.07 1016.77 1017.54 1018.33 1019.11 1019.84 1020.49 1021.02 1021.39 1021.61 1021.68 1021.63 1021.50 1021.32 1021.15 1021.02 1020.96 1020.96 1021.02 1021.10 1021.18 1021.23 1021.21 1021.10 1020.91 1020.65 1020.35 1020.02 1019.72 1019.47 1019.29 1019.21 1019.21
Thickness
5828 5821 5813 5810 5805 5801 5797 5793 5790 5787 5785 5783 5781 5778 5777 5775 5774 5772 5770 5767 5765 5763 5761 5760 5758 5757 5756 5756 5755 5755 5754 5753 5753 5753 5752 5750 5748 5747 5745 5744 5744 5742 5739
5829 5819 5812 5808 5803 5799 5795 5791 5787 5784 5782 5779 5777 5775 5773 5771 5770 5768 5766 5764 5762 5760 5758 5757 5756 5754 5753 5753 5752 5751 5751 5751 5750 5749 5748 5746 5744 5743 5742 5742 5742 5738 5735
5825 5816 5810 5805 5801 5796 5792 5788 5784 5781 5778 5776 5773 5772 5770 5768 5766 5764 5762 5760 5758 5756 5755 5754 5752 5751 5750 5750 5749 5749 5748 5747 5747 5746 5746 5744 5741 5739 5738 5738 5737 5734 5732
5821 5814 5808 5802 5798 5793 5789 5785 5781 5778 5775 5772 5770 5768 5766 5764 5762 5760 5758 5756 5754 5753 5751 5750 5749 5748 5747 5747 5746 5746 5746 5745 5744 5744 5744 5743 5740 5736 5735 5734 5733 5731 5729
5818 5811 5803 5799 5794 5790 5786 5781 5778 5775 5771 5769 5767 5765 5763 5761 5758 5756 5755 5753 5751 5750 5748 5747 5746 5745 5745 5744 5744 5744 5743 5743 5743 5743 5743 5741 5738 5734 5732 5731 5729 5727 5726
5815 5807 5798 5794 5790 5786 5782 5778 5774 5771 5768 5766 5764 5762 5760 5757 5755 5753 5751 5750 5748 5747 5745 5744 5744 5743 5742 5742 5741 5741 5741 5741 5741 5743 5742 5740 5735 5732 5729 5727 5726 5724 5723
5812 5803 5794 5789 5786 5782 5778 5775 5771 5768 5766 5763 5761 5759 5757 5754 5752 5750 5748 5747 5745 5744 5743 5742 5741 5741 5740 5740 5739 5739 5739 5739 5740 5742 5741 5739 5734 5730 5727 5724 5723 5721 5719
5810 5799 5789 5785 5782 5778 5775 5772 5768 5766 5763 5761 5758 5756 5754 5751 5749 5748 5746 5744 5743 5742 5741 5740 5739 5739 5738 5738 5737 5737 5738 5738 5741 5742 5741 5736 5732 5728 5725 5722 5720 5718 5716
5810 5797 5788 5781 5778 5774 5771 5768 5765 5763 5761 5758 5756 5753 5751 5749 5747 5746 5744 5742 5741 5740 5739 5738 5737 5737 5736 5736 5736 5736 5736 5737 5737 5740 5739 5734 5730 5726 5723 5719 5717 5715 5713
5807 5796 5788 5782 5777 5772 5768 5765 5762 5760 5758 5756 5753 5751 5749 5747 5746 5744 5742 5741 5739 5738 5737 5736 5736 5735 5735 5735 5735 5735 5735 5736 5737 5739 5736 5733 5729 5726 5721 5717 5714 5712 5711
5803 5795 5789 5783 5777 5773 5768 5762 5759 5757 5755 5753 5751 5749 5748 5747 5746 5744 5743 5740 5738 5737 5736 5736 5735 5735 5735 5735 5734 5734 5734 5735 5739 5738 5734 5731 5729 5725 5720 5716 5712 5710 5708
5797 5793 5791 5785 5779 5775 5771 5762 5758 5756 5753 5752 5751 5749 5748 5749 5749 5747 5743 5741 5739 5737 5736 5736 5735 5735 5734 5735 5735 5734 5734 5736 5738 5738 5733 5729 5728 5724 5719 5715 5711 5708 5706
5798 5795 5793 5787 5782 5779 5772 5763 5761 5759 5755 5754 5753 5751 5750 5751 5750 5748 5744 5741 5739 5738 5737 5736 5735 5735 5736 5737 5738 5736 5736 5738 5739 5738 5733 5728 5725 5723 5718 5714 5710 5707 5704
5800 5796 5794 5789 5784 5780 5775 5768 5765 5762 5758 5757 5755 5753 5752 5752 5752 5751 5747 5744 5743 5741 5740 5739 5738 5738 5739 5740 5740 5738 5738 5738 5737 5735 5731 5727 5724 5721 5718 5714 5709 5706 5703
5799 5796 5792 5789 5784 5780 5775 5771 5769 5766 5762 5760 5758 5754 5754 5752 5751 5752 5749 5747 5746 5745 5743 5741 5740 5740 5740 5739 5738 5737 5736 5736 5734 5732 5728 5725 5722 5719 5716 5712 5708 5704 5701
5798 5795 5792 5787 5783 5778 5773 5770 5769 5767 5763 5762 5759 5756 5753 5752 5751 5750 5747 5745 5744 5743 5742 5740 5739 5738 5737 5735 5734 5734 5733 5731 5730 5727 5724 5721 5718 5715 5713 5710 5706 5702 5699
5795 5793 5790 5786 5781 5776 5771 5768 5767 5765 5763 5761 5758 5755 5752 5750 5748 5746 5744 5742 5741 5740 5738 5736 5735 5734 5732 5730 5729 5728 5727 5726 5724 5721 5719 5717 5714 5711 5709 5706 5703 5699 5696
5791 5788 5786 5785 5777 5772 5768 5765 5764 5763 5761 5758 5755 5753 5750 5747 5745 5742 5740 5738 5737 5735 5733 5730 5728 5726 5724 5722 5721 5721 5720 5718 5717 5715 5712 5711 5709 5707 5703 5701 5698 5695 5692
5784 5782 5779 5778 5772 5767 5764 5761 5760 5758 5756 5753 5750 5748 5746 5743 5740 5737 5735 5733 5731 5729 5726 5724 5721 5719 5716 5713 5711 5711 5710 5708 5706 5706 5704 5703 5702 5701 5698 5695 5692 5689 5686
5775 5775 5772 5770 5766 5762 5759 5756 5754 5753 5750 5747 5744 5742 5740 5737 5734 5730 5727 5725 5723 5721 5719 5716 5713 5711 5708 5704 5702 5701 5700 5700 5698 5696 5695 5694 5693 5692 5689 5688 5684 5681 5679
5762 5761 5760 5759 5758 5755 5752 5749 5746 5743 5742 5740 5737 5735 5732 5728 5726 5723 5720 5717 5714 5711 5709 5707 5704 5701 5698 5695 5691 5690 5691 5692 5690 5688 5687 5685 5684 5683 5681 5679 5676 5673 5670
5747 5748 5749 5748 5748 5747 5745 5744 5741 5738 5735 5733 5729 5726 5721 5718 5715 5713 5709 5706 5703 5700 5698 5696 5694 5691 5689 5686 5681 5678 5677 5678 5681 5681 5679 5677 5675 5673 5670 5668 5666 5664 5661
5732 5733 5736 5736 5737 5738 5738 5737 5733 5730 5726 5721 5716 5712 5708 5704 5701 5699 5696 5694 5692 5690 5687 5685 5685 5683 5680 5677 5674 5671 5667 5667 5669 5670 5669 5667 5665 5663 5660 5658 5656 5653 5650
5717 5720 5723 5723 5725 5727 5729 5727 5723 5719 5712 5707 5703 5698 5693 5689 5687 5685 5683 5681 5679 5676 5675 5674 5674 5674 5672 5668 5667 5665 5661 5659 5657 5656 5656 5655 5653 5651 5649 5647 5644 5641 5637
5704 5706 5707 5708 5710 5712 5714 5715 5712 5707 5701 5695 5690 5684 5678 5674 5671 5669 5668 5667 5665 5663 5662 5661 5662 5661 5659 5656 5655 5653 5650 5649 5647 5645 5642 5641 5640 5639 5637 5634 5631 5628 5624
5692 5693 5694 5694 5695 5696 5697 5698 5697 5692 5687 5681 5676 5671 5666 5660 5656 5654 5654 5652 5650 5649 5648 5647 5647 5646 5644 5642 5640 5639 5637 5634 5632 5631 5629 5627 5625 5624 5622 5621 5618 5615 5611